�N����,����,�~����,�C��,���x,�C��,����,���ϕ���,�ő�u�ԕ���,�ő厞����,���˗�,�I�_���x,�n�����x,�ő啗���N��,DTYPE
"18/08/19","00:10",0.0,21.4,81.9,1006.4,324.5,1.5,2.1,340.3,0.00,18.2,25.2,"00:06:56",1
"18/08/19","00:20",0.0,21.2,82.8,1006.4,311.7,1.0,1.6,318.7,0.00,18.2,25.2,"00:13:12",1
"18/08/19","00:30",0.0,21.1,83.2,1006.2,298.3,1.1,1.6,306.3,0.00,18.2,25.0,"00:29:44",1
"18/08/19","00:40",0.0,21.1,83.3,1006.7,291.0,1.1,1.8,318.8,0.00,18.2,24.7,"00:31:28",1
"18/08/19","00:50",0.0,21.1,83.0,1006.2,285.2,1.1,1.7,316.5,0.00,18.1,24.8,"00:45:28",1
"18/08/19","01:00",0.0,21.3,83.1,1006.2,298.0,1.3,2.8,308.0,0.00,18.4,24.9,"00:50:32",1
"18/08/19","01:10",0.0,21.3,82.8,1006.2,296.8,1.3,1.9,324.3,0.00,18.3,24.9,"01:05:12",1
"18/08/19","01:20",0.0,21.1,82.7,1006.4,292.0,1.2,2.0,313.5,0.00,18.1,24.8,"01:17:20",1
"18/08/19","01:30",0.0,20.9,84.0,1006.2,292.3,1.1,1.9,312.3,0.00,18.1,24.7,"01:22:32",1
"18/08/19","01:40",0.0,20.9,84.3,1006.4,294.2,1.1,1.6,263.4,0.00,18.2,24.6,"01:34:24",1
"18/08/19","01:50",0.0,20.8,84.1,1006.7,287.0,1.1,1.8,307.2,0.00,18.1,24.5,"01:42:32",1
"18/08/19","02:00",0.0,20.7,84.5,1006.2,292.7,0.8,1.6,308.9,0.00,18.0,24.6,"01:51:04",1
"18/08/19","02:10",0.0,20.6,85.2,1006.4,308.6,1.3,1.7,310.0,0.00,18.1,24.5,"02:04:08",1
"18/08/19","02:20",0.0,20.6,85.7,1006.4,310.3,1.0,1.4,305.8,0.00,18.2,24.6,"02:12:24",1
"18/08/19","02:30",0.0,20.6,85.7,1006.2,320.9,1.1,1.7,311.0,0.00,18.2,24.3,"02:23:20",1
"18/08/19","02:40",0.0,20.5,85.7,1006.4,290.7,0.8,1.4,325.6,0.00,18.1,24.4,"02:36:56",1
"18/08/19","02:50",0.0,20.4,86.1,1006.4,311.9,1.1,1.6,313.7,0.00,18.0,24.3,"02:48:40",1
"18/08/19","03:00",0.0,20.5,85.8,1006.7,285.3,1.1,1.7,293.2,0.00,18.1,24.5,"02:53:20",1
"18/08/19","03:10",0.0,20.5,85.2,1007.1,299.1,1.1,1.6,322.4,0.00,18.0,24.2,"03:01:52",1
"18/08/19","03:20",0.0,20.3,85.5,1007.1,305.2,1.0,1.7,329.3,0.00,17.8,24.1,"03:18:24",1
"18/08/19","03:30",0.0,20.1,85.7,1007.1,304.1,1.0,1.7,315.2,0.00,17.7,24.3,"03:20:16",1
"18/08/19","03:40",0.0,19.9,86.9,1007.4,300.1,0.5,1.1,311.9,0.00,17.7,24.1,"03:37:52",1
"18/08/19","03:50",0.0,19.8,87.3,1007.4,288.9,0.7,1.3,302.2,0.00,17.7,24.0,"03:47:12",1
"18/08/19","04:00",0.0,19.7,87.2,1007.4,300.0,0.7,1.1,326.3,0.00,17.6,23.9,"03:50:24",1
"18/08/19","04:10",0.0,19.4,87.9,1007.4,310.7,0.5,0.9,307.3,0.00,17.4,23.9,"04:05:28",1
"18/08/19","04:20",0.0,19.3,89.5,1007.6,284.5,0.5,1.0,307.2,0.00,17.6,23.8,"04:12:32",1
"18/08/19","04:30",0.0,19.6,89.1,1007.4,271.0,0.8,1.4,283.6,0.00,17.8,23.7,"04:24:40",1
"18/08/19","04:40",0.0,19.6,88.0,1007.4,294.8,0.8,1.2,308.3,0.00,17.6,23.8,"04:35:04",1
"18/08/19","04:50",0.0,19.5,88.5,1007.8,318.7,1.2,1.7,320.8,0.00,17.6,23.7,"04:42:00",1
"18/08/19","05:00",0.0,19.3,89.1,1008.3,313.8,1.0,1.3,322.2,0.00,17.5,23.5,"04:51:12",1
"18/08/19","05:10",0.0,19.1,89.7,1007.6,289.3,1.0,1.3,286.6,0.00,17.4,23.6,"05:05:28",1
"18/08/19","05:20",0.0,19.1,89.7,1007.8,290.8,1.0,1.2,314.3,0.00,17.4,23.6,"05:18:16",1
"18/08/19","05:30",0.0,19.0,89.8,1008.1,313.3,1.3,1.6,321.8,0.00,17.3,23.7,"05:20:48",1
"18/08/19","05:40",0.0,18.9,90.5,1008.1,311.7,1.0,1.4,322.5,0.00,17.4,23.5,"05:36:48",1
"18/08/19","05:50",0.0,18.7,91.1,1008.3,294.3,0.6,1.0,305.9,0.00,17.3,23.5,"05:40:16",1
"18/08/19","06:00",0.0,18.7,91.3,1008.6,306.8,0.6,1.6,310.8,0.00,17.3,23.4,"05:50:56",1
"18/08/19","06:10",0.0,19.0,91.8,1008.3,325.3,1.2,1.6,324.1,0.00,17.7,23.3,"06:00:08",1
"18/08/19","06:20",0.0,19.6,91.1,1008.6,310.5,1.1,1.6,321.6,0.01,18.1,23.2,"06:12:00",1
"18/08/19","06:30",0.0,20.0,90.6,1008.3,313.8,1.1,2.2,340.2,0.02,18.5,23.2,"06:29:36",1
"18/08/19","06:40",0.0,20.8,90.3,1008.6,334.4,0.8,1.9,341.6,0.03,19.2,23.2,"06:30:16",1
"18/08/19","06:50",0.0,22.6,81.6,1008.6,324.6,0.8,1.4,332.8,0.05,19.3,23.3,"06:47:12",1
"18/08/19","07:00",0.0,23.3,79.0,1008.6,329.8,0.3,1.2,332.5,0.07,19.5,23.5,"06:52:32",1
"18/08/19","07:10",0.0,24.0,74.0,1008.8,327.3,0.3,1.0,343.4,0.09,19.1,23.5,"07:09:42",1
"18/08/19","07:20",0.0,24.2,75.4,1008.8,330.6,0.3,1.0,341.0,0.10,19.6,23.7,"07:15:36",1
"18/08/19","07:30",0.0,24.0,75.9,1008.6,345.7,0.6,1.4,352.7,0.11,19.5,23.7,"07:22:32",1
"18/08/19","07:40",0.0,24.5,73.3,1008.6,346.6,0.6,1.4,343.4,0.14,19.4,23.9,"07:36:40",1
"18/08/19","07:50",0.0,25.7,67.1,1008.1,97.6,0.5,1.2,56.6,0.17,19.2,24.2,"07:48:48",1
"18/08/19","08:00",0.0,25.7,65.3,1007.8,97.9,1.0,2.2,100.3,0.19,18.7,24.2,"07:56:16",1
"18/08/19","08:10",0.0,26.1,65.2,1007.8,107.7,0.8,2.6,147.5,0.22,19.1,24.4,"08:07:44",1
"18/08/19","08:20",0.0,26.1,63.9,1007.4,142.8,1.2,4.0,118.9,0.25,18.8,24.6,"08:19:04",1
"18/08/19","08:30",0.0,26.1,64.3,1007.4,123.2,1.3,4.2,122.7,0.25,18.9,24.9,"08:20:40",1
"18/08/19","08:40",0.0,26.5,62.3,1007.4,112.6,1.1,2.6,102.5,0.26,18.7,24.8,"08:36:00",1
"18/08/19","08:50",0.0,26.7,61.9,1007.1,112.2,1.1,3.2,119.1,0.29,18.8,25.3,"08:48:16",1
"18/08/19","09:00",0.0,26.9,60.8,1007.1,118.2,0.8,2.2,140.9,0.30,18.7,25.4,"08:58:24",1
"18/08/19","09:10",0.0,27.3,61.2,1007.6,102.2,0.8,2.6,118.5,0.33,19.2,25.7,"09:06:24",1
"18/08/19","09:20",0.0,26.9,59.7,1007.8,109.0,1.2,2.2,139.9,0.32,18.4,26.2,"09:15:12",1
"18/08/19","09:30",0.0,27.6,57.0,1008.1,116.4,1.2,4.0,162.2,0.34,18.4,26.1,"09:20:40",1
"18/08/19","09:40",0.0,28.0,57.9,1007.8,111.6,1.1,3.2,163.8,0.39,19.0,26.3,"09:32:32",1
"18/08/19","09:50",0.0,28.0,54.9,1008.3,85.5,1.3,2.9,77.3,0.40,18.1,26.7,"09:47:36",1
"18/08/19","10:00",0.0,28.7,52.3,1008.1,88.6,1.1,2.4,125.0,0.41,18.0,26.7,"09:52:40",1
"18/08/19","10:10",0.0,28.4,53.6,1008.3,120.4,1.1,2.4,103.7,0.41,18.1,26.9,"10:09:28",1
"18/08/19","10:20",0.0,28.4,56.7,1008.3,120.4,1.1,2.7,130.8,0.41,19.0,27.4,"10:17:44",1
"18/08/19","10:30",0.0,29.3,54.1,1008.1,102.1,1.3,3.7,39.2,0.45,19.1,27.7,"10:25:28",1
"18/08/19","10:40",0.0,29.5,52.2,1008.3,109.1,1.3,3.1,127.7,0.46,18.7,27.8,"10:39:12",1
"18/08/19","10:50",0.0,28.6,50.7,1008.3,161.2,1.2,2.9,125.7,0.50,17.4,28.1,"10:40:48",1
"18/08/19","11:00",0.0,29.1,51.9,1007.8,103.4,1.3,3.5,102.4,0.47,18.3,28.2,"10:55:44",1
"18/08/19","11:10",0.0,29.2,47.9,1007.8,132.4,1.2,3.2,138.6,0.47,17.1,28.7,"11:05:44",1
"18/08/19","11:20",0.0,29.7,49.7,1008.1,131.8,1.5,2.9,205.1,0.51,18.1,28.8,"11:16:40",1
"18/08/19","11:30",0.0,28.8,49.0,1008.1,125.4,1.2,4.4,127.3,0.43,17.1,29.1,"11:20:24",1
"18/08/19","11:40",0.0,29.0,48.6,1007.6,23.6,1.0,2.9,5.9,0.21,17.1,29.2,"11:35:20",1
"18/08/19","11:50",0.0,28.8,47.9,1006.9,33.1,1.2,2.6,50.8,0.19,16.7,29.2,"11:40:08",1
"18/08/19","12:00",0.0,29.2,48.9,1006.7,133.8,1.1,3.5,136.9,0.28,17.4,29.5,"11:56:24",1
"18/08/19","12:10",0.0,29.7,46.2,1006.7,137.2,1.5,3.7,195.4,0.29,17.0,29.3,"12:01:12",1
"18/08/19","12:20",0.0,30.9,45.7,1006.4,132.1,1.3,2.4,6.9,0.36,17.9,29.3,"12:10:24",1
"18/08/19","12:30",0.0,30.4,44.1,1006.7,87.3,1.1,2.4,172.3,0.42,16.9,29.5,"12:20:16",1
"18/08/19","12:40",0.0,31.7,43.2,1006.9,138.9,1.3,3.4,136.6,0.61,17.7,29.7,"12:33:44",1
"18/08/19","12:50",0.0,31.1,44.2,1006.9,151.8,1.3,3.2,215.5,0.47,17.5,29.8,"12:42:56",1
"18/08/19","13:00",0.0,30.9,44.0,1006.9,122.7,1.5,3.5,118.8,0.42,17.3,30.0,"12:53:52",1
"18/08/19","13:10",0.0,30.1,44.7,1006.4,169.9,1.3,2.9,179.7,0.28,16.8,30.2,"13:09:28",1
"18/08/19","13:20",0.0,31.5,44.9,1006.2,155.7,1.5,3.2,146.4,0.41,18.1,30.2,"13:14:16",1
"18/08/19","13:30",0.0,31.9,38.4,1006.4,83.0,1.2,3.3,128.3,0.51,16.0,30.4,"13:25:44",1
"18/08/19","13:40",0.0,31.5,39.5,1007.1,122.7,0.8,3.2,80.2,0.53,16.1,30.8,"13:35:28",1
"18/08/19","13:50",0.0,30.4,41.3,1006.7,38.8,1.2,2.8,76.0,0.30,15.8,30.7,"13:41:52",1
"18/08/19","14:00",0.0,30.2,44.8,1006.4,123.0,1.3,3.3,137.2,0.23,16.9,30.7,"13:54:56",1
"18/08/19","14:10",0.0,30.7,42.1,1006.0,143.6,1.5,3.1,128.1,0.39,16.4,30.8,"14:04:00",1
"18/08/19","14:20",0.0,31.3,44.4,1006.0,163.8,1.6,3.4,133.2,0.41,17.8,30.8,"14:14:56",1
"18/08/19","14:30",0.0,31.2,42.9,1005.5,110.0,1.3,4.4,153.1,0.30,17.1,30.7,"14:21:52",1
"18/08/19","14:40",0.0,30.5,46.2,1005.5,66.2,1.2,2.5,155.3,0.21,17.7,30.9,"14:39:20",1
"18/08/19","14:50",0.0,31.2,44.4,1005.5,90.2,1.2,2.7,95.2,0.34,17.7,30.8,"14:44:56",1
"18/08/19","15:00",0.0,30.7,44.9,1005.0,79.6,1.0,2.9,106.2,0.18,17.4,30.8,"14:53:20",1
"18/08/19","15:10",0.0,31.3,42.0,1005.2,57.2,0.8,2.1,56.6,0.33,16.9,30.8,"15:09:44",1
"18/08/19","15:20",0.0,30.9,44.9,1004.8,108.4,1.5,3.6,61.5,0.22,17.6,30.5,"15:13:36",1
"18/08/19","15:30",0.0,31.4,43.7,1004.8,154.4,1.5,3.1,143.9,0.39,17.6,30.9,"15:20:56",1
"18/08/19","15:40",0.0,31.2,42.9,1005.2,128.6,1.5,2.9,127.5,0.37,17.1,30.7,"15:38:00",1
"18/08/19","15:50",0.0,31.4,42.4,1005.2,93.0,1.3,3.5,107.8,0.35,17.1,31.0,"15:41:28",1
"18/08/19","16:00",0.0,30.2,45.1,1005.0,108.6,1.2,2.6,103.5,0.16,17.0,30.8,"15:55:36",1
"18/08/19","16:10",0.0,30.6,43.0,1004.5,99.2,1.2,2.4,93.0,0.12,16.6,30.5,"16:02:40",1
"18/08/19","16:20",0.0,29.9,44.8,1004.3,128.9,1.2,2.7,103.1,0.08,16.7,30.5,"16:12:16",1
"18/08/19","16:30",0.0,31.1,42.4,1004.1,100.4,1.2,2.8,79.8,0.22,16.9,30.6,"16:29:52",1
"18/08/19","16:40",0.0,31.5,41.8,1004.3,93.4,1.3,2.9,59.6,0.23,17.0,30.5,"16:35:04",1
"18/08/19","16:50",0.0,31.1,42.3,1003.8,118.5,1.7,4.3,137.1,0.19,16.8,30.3,"16:41:04",1
"18/08/19","17:00",0.0,30.9,42.3,1004.3,86.3,1.3,2.8,20.3,0.16,16.7,30.2,"16:56:40",1
"18/08/19","17:10",0.0,30.6,43.7,1003.8,110.0,1.5,3.5,122.9,0.14,16.9,30.1,"17:05:36",1
"18/08/19","17:20",0.0,30.5,44.3,1004.3,87.7,1.3,3.3,132.1,0.12,17.0,29.9,"17:10:16",1
"18/08/19","17:30",0.0,30.1,44.4,1003.8,106.6,1.2,3.3,103.0,0.09,16.7,30.0,"17:23:52",1
"18/08/19","17:40",0.0,29.8,45.7,1003.6,120.1,1.5,3.9,138.8,0.08,16.9,29.5,"17:38:16",1
"18/08/19","17:50",0.0,29.5,45.8,1003.4,115.5,1.2,3.5,150.8,0.05,16.6,29.5,"17:42:16",1
"18/08/19","18:00",0.0,29.0,46.0,1003.6,101.4,1.2,3.7,99.3,0.03,16.3,29.5,"17:56:32",1
"18/08/19","18:10",0.0,28.7,47.2,1003.6,115.9,1.3,3.3,119.0,0.02,16.4,29.4,"18:05:12",1
"18/08/19","18:20",0.0,28.5,48.5,1003.6,94.2,1.1,2.4,147.6,0.01,16.6,29.1,"18:10:32",1
"18/08/19","18:30",0.0,28.1,48.7,1003.4,119.2,1.1,2.5,128.1,0.01,16.3,29.1,"18:25:44",1
"18/08/19","18:40",0.0,27.7,49.7,1004.1,111.2,1.2,2.9,150.2,0.00,16.3,28.8,"18:39:20",1
"18/08/19","18:50",0.0,27.3,50.3,1004.3,131.1,0.8,2.5,137.5,0.00,16.1,28.7,"18:46:08",1
"18/08/19","19:00",0.0,27.1,49.6,1004.5,107.3,1.2,3.6,136.8,0.00,15.7,28.7,"18:56:08",1
"18/08/19","19:10",0.0,26.8,50.1,1005.0,115.2,0.8,2.9,86.9,0.00,15.6,28.3,"19:01:28",1
"18/08/19","19:20",0.0,26.5,49.6,1005.0,121.1,1.3,3.6,147.6,0.00,15.2,28.1,"19:14:16",1
"18/08/19","19:30",0.0,26.1,50.8,1005.0,150.1,1.0,2.4,133.9,0.00,15.2,28.3,"19:27:04",1
"18/08/19","19:40",0.0,26.0,52.1,1005.7,90.7,0.7,2.4,89.9,0.00,15.5,28.1,"19:30:56",1
"18/08/19","19:50",0.0,25.8,52.5,1005.7,21.0,0.8,1.7,358.1,0.00,15.4,27.7,"19:48:00",1
"18/08/19","20:00",0.0,25.6,52.9,1006.2,18.6,0.6,1.9,87.5,0.00,15.3,27.7,"19:52:00",1
"18/08/19","20:10",0.0,25.4,53.6,1006.0,62.5,0.7,2.1,59.8,0.00,15.3,27.6,"20:02:40",1
"18/08/19","20:20",0.0,25.1,55.1,1006.2,352.6,0.8,2.0,348.0,0.00,15.5,27.4,"20:10:08",1
"18/08/19","20:30",0.0,24.9,56.6,1006.2,358.6,0.8,1.8,27.0,0.00,15.7,27.2,"20:22:40",1
"18/08/19","20:40",0.0,24.6,58.5,1006.4,340.4,0.6,1.6,350.7,0.00,16.0,27.1,"20:37:12",1
"18/08/19","20:50",0.0,24.2,60.1,1006.7,329.5,0.8,1.8,335.6,0.00,16.0,27.0,"20:47:28",1
"18/08/19","21:00",0.0,23.7,62.7,1006.9,335.5,1.3,1.9,339.5,0.00,16.2,27.0,"20:53:44",1
"18/08/19","21:10",0.0,23.3,64.0,1007.1,341.5,1.6,2.7,341.4,0.00,16.2,26.6,"21:08:48",1
"18/08/19","21:20",0.0,22.6,68.0,1006.7,330.9,1.3,1.9,342.2,0.00,16.4,26.7,"21:17:52",1
"18/08/19","21:30",0.0,22.3,69.6,1006.7,342.7,1.1,2.5,349.5,0.00,16.5,26.4,"21:25:20",1
"18/08/19","21:40",0.0,22.3,69.3,1006.7,337.2,1.6,2.2,336.3,0.00,16.4,26.2,"21:32:16",1
"18/08/19","21:50",0.0,21.8,70.7,1007.1,335.6,1.6,2.5,339.9,0.00,16.3,26.2,"21:42:24",1
"18/08/19","22:00",0.0,21.1,72.8,1006.9,304.6,1.1,1.9,309.8,0.00,16.1,26.0,"21:53:28",1
"18/08/19","22:10",0.0,20.5,75.4,1007.1,324.0,1.0,1.7,303.3,0.00,16.0,26.0,"22:02:16",1
"18/08/19","22:20",0.0,20.4,77.7,1007.4,309.4,0.8,1.2,318.9,0.00,16.4,25.8,"22:12:16",1
"18/08/19","22:30",0.0,20.8,76.2,1007.1,295.4,1.2,2.4,303.2,0.00,16.5,25.8,"22:29:04",1
"18/08/19","22:40",0.0,20.8,73.9,1007.1,307.1,1.0,1.8,298.4,0.00,16.0,25.6,"22:30:40",1
"18/08/19","22:50",0.0,20.8,74.9,1007.1,302.7,1.3,1.7,307.0,0.00,16.2,25.5,"22:44:08",1
"18/08/19","23:00",0.0,20.6,75.0,1007.4,331.5,0.6,1.8,335.1,0.00,16.1,25.5,"22:53:28",1
"18/08/19","23:10",0.0,20.4,75.6,1007.4,298.9,0.8,1.2,321.2,0.00,16.0,25.2,"23:06:24",1
"18/08/19","23:20",0.0,20.2,76.2,1007.4,318.1,1.0,1.4,317.7,0.00,15.9,25.3,"23:12:56",1
"18/08/19","23:30",0.0,19.9,77.9,1007.4,310.9,0.7,1.3,320.3,0.00,16.0,25.2,"23:27:20",1
"18/08/19","23:40",0.0,19.6,79.1,1007.1,318.6,1.0,1.4,331.9,0.00,15.9,24.9,"23:32:00",1
"18/08/19","23:50",0.0,19.6,79.2,1007.1,303.9,0.8,1.3,316.9,0.00,15.9,25.0,"23:41:44",1
"18/08/19","24:00",0.0,19.8,79.3,1007.4,302.9,1.2,1.7,316.2,0.00,16.2,24.8,"23:55:28",1
